Weather in Staroryamova

Russia / Tyumen Oblast     55°41′22″N   68°13′54″E
temp.,
°C
wind,
m/s
gust,
m/s
humid.,
%
clouds,
%
prec.,
mm/h
press.,
hPa
HPBL,
m
25 june, sat
sat2523:00+17nw358942 0.1 100676
02:00+15wnw4689100 0.0 100797
05:00+15wsw2393100 1.0 100683
08:00+16w3490100 0.3 1005300
11:00+15w2492100 4.8 1004313
14:00+16se1188100 0.4 1003113
17:00+15wsw1190100 0.6 100168
20:00+15s238826 0.3 100054
26 june, sun
sun2623:00+12wsw33904 0.3 99940
02:00+12w36955 0.0 997114
05:00+13wnw3794100 0.0 997186
08:00+16nw578322 0.3 998695
11:00+17wnw6773100 1.1 9981237
14:00+15wnw777988 0.8 10001059
17:00+12nw7874100 0.8 1001988
20:00+10wnw5876100 0.0 1002700
27 june, mon
mon2723:00+10wnw4881100 0.0 1002610
02:00+8wnw5986100 0.1 1003688
05:00+8wnw6991100 0.1 1003776
08:00+8wnw71292100 0.0 1004676
11:00+10wnw71085100 0.1 1005807
14:00+11wnw61078100 0.1 10061098
17:00+12wnw6980100 0.1 1006964
20:00+12wnw598176 0.1 1007742
28 june, tue
tue2823:00+11wsw368899 0.1 1006200
02:00+10sw3888100 0.1 1005247
05:00+10ssw41086100 0.1 1004363
08:00+10ssw51196100 0.8 1003466
11:00+11ssw61296100 2.6 1002587
14:00+12ssw5996100 0.5 1001708
17:00+13wsw2495100 0.6 1001326
20:00+12nnw4796100 0.2 1000368
29 june, wed
wed2923:00+9n61296100 0.6 999482
02:00+8nnw91596100 1.1 996655
05:00+8nw111795100 8.1 996800
08:00+7nw111696100 4.3 9961052
11:00+7nw121894100 8.8 9971166
14:00+8wnw111693100 4.1 9981205
17:00+9nw101494100 7.5 10001003
20:00+7nw81494100 0.3 1001838